LRC669 MROC-SKCG

Flight info

Callsign LRC669
Flight time 1h 18m
Altitude 37000
Route TEJAR4M LIO UM796 ALGEN
Aircraft A320/M-SDE3FGHIRWY/LB1

Departure

Time 2026-04-23 18:48
Airport Juan Santamaría International Airport (MROC)

Arrival

Time 2026-04-23 20:07
Airport Rafael Nuñez International Airport (SKCG)
Time Latitude Longitude Altitude Speed Heading
2026-04-23 17:59 9.99753 -84.20350 3034 ft 0 kts 339°
2026-04-23 18:31 9.99745 -84.20347 3034 ft 4 kts 341°
2026-04-23 18:31 9.99718 -84.20340 3033 ft 4 kts 354°
2026-04-23 18:31 9.99693 -84.20339 3033 ft 2 kts
2026-04-23 18:31 9.99686 -84.20340 3033 ft 0 kts
2026-04-23 18:35 9.99687 -84.20340 3033 ft 1 kts 11°
2026-04-23 18:36 9.99699 -84.20322 3035 ft 3 kts 65°
2026-04-23 18:36 9.99701 -84.20316 3034 ft 0 kts 71°
2026-04-23 18:44 9.99706 -84.20303 3033 ft 5 kts 70°
2026-04-23 18:45 9.99719 -84.20267 3035 ft 5 kts 70°
2026-04-23 18:45 9.99732 -84.20230 3035 ft 6 kts 69°
2026-04-23 18:45 9.99746 -84.20194 3036 ft 7 kts 69°
2026-04-23 18:45 9.99766 -84.20141 3034 ft 7 kts 69°
2026-04-23 18:46 9.99782 -84.20097 3034 ft 6 kts 70°
2026-04-23 18:46 9.99796 -84.20059 3034 ft 6 kts 70°
2026-04-23 18:46 9.99788 -84.20015 3037 ft 9 kts 130°
2026-04-23 18:46 9.99740 -84.19991 3036 ft 6 kts 169°
2026-04-23 18:47 9.99717 -84.20012 3037 ft 5 kts 248°
2026-04-23 18:47 9.99714 -84.20020 3037 ft 0 kts 249°
2026-04-23 18:47 9.99712 -84.20024 3037 ft 8 kts 249°
2026-04-23 18:47 9.99591 -84.20345 3039 ft 86 kts 249°
2026-04-23 18:48 9.99294 -84.21130 3006 ft 151 kts 249°
2026-04-23 18:48 9.98892 -84.22227 3480 ft 169 kts 247°
2026-04-23 18:48 9.98440 -84.23344 4301 ft 173 kts 247°
2026-04-23 18:48 9.97972 -84.24478 5032 ft 172 kts 248°
2026-04-23 18:49 9.97514 -84.25612 5528 ft 175 kts 247°
2026-04-23 18:49 9.96769 -84.26622 5836 ft 189 kts 212°
2026-04-23 18:49 9.95480 -84.26946 6085 ft 204 kts 172°
2026-04-23 18:49 9.94006 -84.26653 6274 ft 227 kts 169°
2026-04-23 18:50 9.92931 -84.26474 6398 ft 244 kts 171°
2026-04-23 18:50 9.90529 -84.26139 6844 ft 274 kts 172°
2026-04-23 18:50 9.88661 -84.25777 7440 ft 282 kts 158°
2026-04-23 18:50 9.86952 -84.24720 8192 ft 286 kts 143°
2026-04-23 18:51 9.85331 -84.23525 8984 ft 289 kts 144°
2026-04-23 18:51 9.83695 -84.22351 9758 ft 292 kts 144°
2026-04-23 18:51 9.82129 -84.21002 10469 ft 296 kts 130°
2026-04-23 18:51 9.81019 -84.19244 11157 ft 299 kts 112°
2026-04-23 18:52 9.80503 -84.17196 11869 ft 302 kts 94°
2026-04-23 18:52 9.80569 -84.15085 12564 ft 305 kts 85°
2026-04-23 18:52 9.80748 -84.12915 13235 ft 310 kts 85°
2026-04-23 18:52 9.80930 -84.10647 13410 ft 333 kts 85°
2026-04-23 18:53 9.81119 -84.08237 13621 ft 351 kts 85°
2026-04-23 18:53 9.81310 -84.05746 14129 ft 358 kts 85°
2026-04-23 18:53 9.81501 -84.03211 14665 ft 363 kts 85°
2026-04-23 18:53 9.81694 -84.00652 15225 ft 367 kts 85°
2026-04-23 18:54 9.81891 -83.98062 15792 ft 370 kts 85°
2026-04-23 18:54 9.82091 -83.95436 16354 ft 374 kts 85°
2026-04-23 18:54 9.82292 -83.92819 16909 ft 377 kts 85°
2026-04-23 18:54 9.82500 -83.90148 17449 ft 381 kts 85°
2026-04-23 18:55 9.82715 -83.87439 18001 ft 385 kts 85°
2026-04-23 18:55 9.82928 -83.84724 18503 ft 388 kts 85°
2026-04-23 18:55 9.83137 -83.82020 18968 ft 392 kts 85°
2026-04-23 18:55 9.83353 -83.79230 19424 ft 395 kts 85°
2026-04-23 18:56 9.83497 -83.77388 19732 ft 398 kts 85°
2026-04-23 18:56 9.83779 -83.73630 20336 ft 403 kts 86°
2026-04-23 18:56 9.83976 -83.70769 20792 ft 407 kts 86°
2026-04-23 18:56 9.84170 -83.67893 21240 ft 411 kts 86°
2026-04-23 18:57 9.84365 -83.65009 21696 ft 415 kts 86°
2026-04-23 18:57 9.84565 -83.62072 22151 ft 418 kts 86°
2026-04-23 18:57 9.84950 -83.59132 22596 ft 422 kts 78°
2026-04-23 18:57 9.85546 -83.56209 23048 ft 425 kts 78°
2026-04-23 18:58 9.86142 -83.53282 23483 ft 428 kts 78°
2026-04-23 18:58 9.86743 -83.50319 23858 ft 432 kts 78°
2026-04-23 18:58 9.87353 -83.47308 24224 ft 434 kts 78°
2026-04-23 18:58 9.87957 -83.44327 24585 ft 437 kts 78°
2026-04-23 18:59 9.88567 -83.41296 24923 ft 439 kts 78°
2026-04-23 18:59 9.89181 -83.38226 25263 ft 441 kts 78°
2026-04-23 18:59 9.89788 -83.35193 25588 ft 444 kts 78°
2026-04-23 18:59 9.90410 -83.32102 25917 ft 447 kts 78°
2026-04-23 19:00 9.90824 -83.30052 26138 ft 448 kts 78°
2026-04-23 19:00 9.91659 -83.25907 26572 ft 452 kts 78°
2026-04-23 19:00 9.92289 -83.22766 26894 ft 455 kts 78°
2026-04-23 19:00 9.92924 -83.19602 27223 ft 457 kts 78°
2026-04-23 19:01 9.93554 -83.16476 27537 ft 460 kts 78°
2026-04-23 19:01 9.94198 -83.13277 27842 ft 462 kts 78°
2026-04-23 19:01 9.94843 -83.10062 28149 ft 464 kts 78°
2026-04-23 19:01 9.95480 -83.06872 28454 ft 467 kts 78°
2026-04-23 19:02 9.95910 -83.04716 28652 ft 468 kts 78°
2026-04-23 19:02 9.96146 -83.00314 29039 ft 471 kts 99°
2026-04-23 19:02 9.95649 -82.97018 29302 ft 473 kts 94°
2026-04-23 19:02 9.95692 -82.93692 29570 ft 475 kts 86°
2026-04-23 19:03 9.95873 -82.90337 29843 ft 477 kts 86°
2026-04-23 19:03 9.96055 -82.86959 30082 ft 480 kts 87°
2026-04-23 19:03 9.96236 -82.83605 30303 ft 481 kts 87°
2026-04-23 19:03 9.96422 -82.80187 30530 ft 483 kts 87°
2026-04-23 19:04 9.96609 -82.76774 30756 ft 484 kts 87°
2026-04-23 19:04 9.96796 -82.73391 30981 ft 485 kts 87°
2026-04-23 19:04 9.96986 -82.69974 31269 ft 484 kts 87°
2026-04-23 19:04 9.97175 -82.66553 31602 ft 483 kts 87°
2026-04-23 19:05 9.97362 -82.63178 31909 ft 482 kts 87°
2026-04-23 19:05 9.97551 -82.59764 32223 ft 481 kts 87°
2026-04-23 19:05 9.97731 -82.56408 32524 ft 480 kts 88°
2026-04-23 19:05 9.97908 -82.53018 32829 ft 480 kts 88°
2026-04-23 19:06 9.98082 -82.49625 33127 ft 479 kts 88°
2026-04-23 19:06 9.98256 -82.46226 33418 ft 479 kts 88°
2026-04-23 19:06 9.98430 -82.42844 33710 ft 479 kts 88°
2026-04-23 19:06 9.98605 -82.39507 33982 ft 479 kts 88°
2026-04-23 19:07 9.98780 -82.36134 34245 ft 478 kts 88°
2026-04-23 19:07 9.98954 -82.32756 34544 ft 477 kts 88°
2026-04-23 19:07 9.99126 -82.29404 34829 ft 476 kts 88°
2026-04-23 19:08 9.99466 -82.22694 34947 ft 479 kts 89°
2026-04-23 19:08 9.99817 -82.15965 34939 ft 478 kts 89°
2026-04-23 19:09 10.00167 -82.09225 34938 ft 477 kts 89°
2026-04-23 19:09 10.00498 -82.02552 34941 ft 475 kts 89°
2026-04-23 19:10 10.00834 -81.95867 34944 ft 474 kts 89°
2026-04-23 19:10 10.01180 -81.89188 34943 ft 474 kts 89°
2026-04-23 19:11 10.01520 -81.82483 34943 ft 474 kts 89°
2026-04-23 19:11 10.01851 -81.75808 34950 ft 474 kts 89°
2026-04-23 19:12 10.02125 -81.70245 34948 ft 474 kts 89°
2026-04-23 19:12 10.02508 -81.62438 34944 ft 474 kts 89°
2026-04-23 19:13 10.02832 -81.55772 34946 ft 474 kts 90°
2026-04-23 19:13 10.03161 -81.49099 34945 ft 474 kts 90°
2026-04-23 19:14 10.03439 -81.43532 34946 ft 474 kts 89°
2026-04-23 19:14 10.03772 -81.36851 34952 ft 473 kts 90°
2026-04-23 19:15 10.04095 -81.30196 34951 ft 473 kts 90°
2026-04-23 19:15 10.04420 -81.23531 34952 ft 473 kts 90°
2026-04-23 19:16 10.04743 -81.16840 34951 ft 472 kts 90°
2026-04-23 19:16 10.05057 -81.10213 34950 ft 472 kts 90°
2026-04-23 19:17 10.05534 -81.00213 34946 ft 472 kts 90°
2026-04-23 19:17 10.05854 -80.93586 34946 ft 472 kts 90°
2026-04-23 19:18 10.06176 -80.86945 34946 ft 472 kts 90°
2026-04-23 19:18 10.06489 -80.80277 34941 ft 471 kts 90°
2026-04-23 19:19 10.06948 -80.70330 34939 ft 471 kts 90°
2026-04-23 19:20 10.07408 -80.60345 34933 ft 472 kts 90°
2026-04-23 19:20 10.07719 -80.53726 34932 ft 472 kts 90°
2026-04-23 19:21 10.08184 -80.43711 34928 ft 472 kts 90°
2026-04-23 19:22 10.08477 -80.37070 34926 ft 472 kts 90°
2026-04-23 19:22 10.08935 -80.27101 34925 ft 473 kts 90°
2026-04-23 19:23 10.09241 -80.20408 34929 ft 473 kts 90°
2026-04-23 19:24 10.09691 -80.10416 34927 ft 473 kts 90°
2026-04-23 19:24 10.10143 -80.00423 34925 ft 473 kts 90°
2026-04-23 19:25 10.10730 -79.87093 34925 ft 473 kts 90°
2026-04-23 19:26 10.11166 -79.77123 34926 ft 473 kts 90°
2026-04-23 19:27 10.11891 -79.60468 34931 ft 471 kts 90°
2026-04-23 19:28 10.12459 -79.47178 34933 ft 471 kts 90°
2026-04-23 19:29 10.12887 -79.37260 34931 ft 470 kts 90°
2026-04-23 19:30 10.13309 -79.27322 34928 ft 470 kts 90°
2026-04-23 19:31 10.13726 -79.17397 34927 ft 469 kts 90°
2026-04-23 19:31 10.14004 -79.10757 34929 ft 469 kts 90°
2026-04-23 19:32 10.14283 -79.04162 34928 ft 469 kts 90°
2026-04-23 19:32 10.14556 -78.97539 34930 ft 469 kts 90°
2026-04-23 19:33 10.14820 -78.90955 34923 ft 469 kts 90°
2026-04-23 19:33 10.15229 -78.81038 34922 ft 469 kts 90°
2026-04-23 19:34 10.15507 -78.74403 34920 ft 469 kts 90°
2026-04-23 19:35 10.15902 -78.64488 34922 ft 468 kts 90°
2026-04-23 19:35 10.16165 -78.57918 34917 ft 468 kts 90°
2026-04-23 19:36 10.16434 -78.51277 34922 ft 468 kts 90°
2026-04-23 19:36 10.16697 -78.44711 34920 ft 468 kts 90°
2026-04-23 19:37 10.16952 -78.38097 34924 ft 468 kts 90°
2026-04-23 19:37 10.17213 -78.31484 34916 ft 468 kts 90°
2026-04-23 19:38 10.17482 -78.24911 34919 ft 468 kts 90°
2026-04-23 19:38 10.17747 -78.18325 34916 ft 467 kts 90°
2026-04-23 19:39 10.18006 -78.11712 34917 ft 467 kts 90°
2026-04-23 19:39 10.18248 -78.05152 34918 ft 467 kts 91°
2026-04-23 19:40 10.18500 -77.98572 34920 ft 467 kts 90°
2026-04-23 19:40 10.18761 -77.91972 34919 ft 467 kts 91°
2026-04-23 19:41 10.19010 -77.85388 34916 ft 467 kts 91°
2026-04-23 19:41 10.19262 -77.78798 34910 ft 467 kts 91°
2026-04-23 19:42 10.19505 -77.72219 34914 ft 467 kts 91°
2026-04-23 19:42 10.19741 -77.65657 34901 ft 467 kts 91°
2026-04-23 19:43 10.19987 -77.59024 34901 ft 468 kts 90°
2026-04-23 19:43 10.20235 -77.52443 34905 ft 468 kts 90°
2026-04-23 19:44 10.20484 -77.45818 34904 ft 469 kts 90°
2026-04-23 19:44 10.20725 -77.39231 34903 ft 469 kts 90°
2026-04-23 19:45 10.20969 -77.32592 34896 ft 469 kts 90°
2026-04-23 19:45 10.21210 -77.25975 34625 ft 469 kts 90°
2026-04-23 19:45 10.21329 -77.22683 34386 ft 461 kts 90°
2026-04-23 19:46 10.21447 -77.19437 34163 ft 458 kts 90°
2026-04-23 19:46 10.21562 -77.16243 33924 ft 457 kts 90°
2026-04-23 19:46 10.21676 -77.13004 33306 ft 455 kts 90°
2026-04-23 19:46 10.21790 -77.09787 32713 ft 453 kts 89°
2026-04-23 19:47 10.21864 -77.07673 32306 ft 452 kts 89°
2026-04-23 19:47 10.22009 -77.03448 31484 ft 451 kts 89°
2026-04-23 19:47 10.22122 -77.00249 30854 ft 451 kts 88°
2026-04-23 19:47 10.22236 -76.97097 30215 ft 451 kts 88°
2026-04-23 19:48 10.22352 -76.93886 29093 ft 459 kts 88°
2026-04-23 19:48 10.22470 -76.90592 27750 ft 473 kts 88°
2026-04-23 19:48 10.22587 -76.87231 26705 ft 477 kts 88°
2026-04-23 19:48 10.22701 -76.83883 25942 ft 474 kts 88°
2026-04-23 19:49 10.22817 -76.80558 25321 ft 468 kts 88°
2026-04-23 19:49 10.22934 -76.77266 24718 ft 463 kts 89°
2026-04-23 19:49 10.23049 -76.73990 24115 ft 458 kts 89°
2026-04-23 19:49 10.23159 -76.70814 23542 ft 453 kts 89°
2026-04-23 19:50 10.23269 -76.67629 22884 ft 448 kts 89°
2026-04-23 19:50 10.23377 -76.64468 22244 ft 444 kts 89°
2026-04-23 19:50 10.23483 -76.61365 21345 ft 445 kts 89°
2026-04-23 19:50 10.23592 -76.58189 20345 ft 451 kts 89°
2026-04-23 19:51 10.23701 -76.55004 19627 ft 449 kts 89°
2026-04-23 19:51 10.23808 -76.51835 18989 ft 445 kts 89°
2026-04-23 19:51 10.23913 -76.48743 18405 ft 441 kts 89°
2026-04-23 19:51 10.24019 -76.45653 18003 ft 432 kts 89°
2026-04-23 19:52 10.24088 -76.43637 17636 ft 428 kts 89°
2026-04-23 19:52 10.24222 -76.39655 16876 ft 422 kts 89°
2026-04-23 19:52 10.24321 -76.36663 16317 ft 419 kts 89°
2026-04-23 19:52 10.24416 -76.33728 15773 ft 415 kts 89°
2026-04-23 19:53 10.24510 -76.30830 15237 ft 412 kts 89°
2026-04-23 19:53 10.24606 -76.27934 14703 ft 409 kts 89°
2026-04-23 19:53 10.24702 -76.25040 14167 ft 406 kts 89°
2026-04-23 19:53 10.24799 -76.22211 13652 ft 403 kts 89°
2026-04-23 19:54 10.24896 -76.19373 13057 ft 400 kts 89°
2026-04-23 19:54 10.24990 -76.16547 12477 ft 396 kts 89°
2026-04-23 19:54 10.25080 -76.13796 11895 ft 393 kts 89°
2026-04-23 19:54 10.25140 -76.11929 11523 ft 390 kts 89°
2026-04-23 19:55 10.25256 -76.08313 10763 ft 385 kts 88°
2026-04-23 19:55 10.25342 -76.05590 10226 ft 381 kts 88°
2026-04-23 19:55 10.25399 -76.03829 10078 ft 372 kts 88°
2026-04-23 19:55 10.25510 -76.00419 9995 ft 347 kts 88°
2026-04-23 19:56 10.25563 -75.98823 10001 ft 335 kts 88°
2026-04-23 19:56 10.25664 -75.95794 10002 ft 312 kts 89°
2026-04-23 19:56 10.25712 -75.94320 10002 ft 305 kts 88°
2026-04-23 19:56 10.25782 -75.92205 10005 ft 299 kts 88°
2026-04-23 19:57 10.25851 -75.90111 9704 ft 296 kts 88°
2026-04-23 19:57 10.25917 -75.88007 9252 ft 297 kts 89°
2026-04-23 19:57 10.25982 -75.85922 8863 ft 295 kts 88°
2026-04-23 19:57 10.26046 -75.83853 8481 ft 293 kts 88°
2026-04-23 19:58 10.26112 -75.81795 8092 ft 291 kts 88°
2026-04-23 19:58 10.26177 -75.79741 7608 ft 287 kts 88°
2026-04-23 19:58 10.26240 -75.77751 6974 ft 284 kts 88°
2026-04-23 19:58 10.26303 -75.75748 6322 ft 282 kts 88°
2026-04-23 19:59 10.26366 -75.73765 5632 ft 280 kts 88°
2026-04-23 19:59 10.26429 -75.71808 4959 ft 277 kts 88°
2026-04-23 19:59 10.26489 -75.69833 4293 ft 277 kts 88°
2026-04-23 19:59 10.26545 -75.67922 4055 ft 267 kts 88°
2026-04-23 20:00 10.26602 -75.66090 4000 ft 251 kts 88°
2026-04-23 20:00 10.26656 -75.64388 4005 ft 233 kts 88°
2026-04-23 20:00 10.26707 -75.62793 4001 ft 217 kts 88°
2026-04-23 20:00 10.26727 -75.61296 3938 ft 208 kts 91°
2026-04-23 20:01 10.26683 -75.59859 3780 ft 199 kts 93°
2026-04-23 20:01 10.26621 -75.58482 3628 ft 194 kts 93°
2026-04-23 20:01 10.26560 -75.57146 3490 ft 186 kts 93°
2026-04-23 20:01 10.26502 -75.55854 3358 ft 178 kts 93°
2026-04-23 20:02 10.26449 -75.54616 3229 ft 171 kts 93°
2026-04-23 20:02 10.26491 -75.53455 3110 ft 164 kts 74°
2026-04-23 20:02 10.27070 -75.52470 3059 ft 164 kts 41°
2026-04-23 20:02 10.28078 -75.51949 2842 ft 164 kts
2026-04-23 20:03 10.29216 -75.51889 2623 ft 162 kts
2026-04-23 20:03 10.30328 -75.51848 2415 ft 162 kts
2026-04-23 20:03 10.31453 -75.51803 2223 ft 158 kts
2026-04-23 20:03 10.32522 -75.51759 2042 ft 150 kts
2026-04-23 20:04 10.33556 -75.51716 1846 ft 148 kts
2026-04-23 20:04 10.34583 -75.51673 1686 ft 146 kts
2026-04-23 20:04 10.35593 -75.51633 1494 ft 146 kts
2026-04-23 20:04 10.36599 -75.51582 1300 ft 144 kts
2026-04-23 20:05 10.37605 -75.51540 1115 ft 143 kts 358°
2026-04-23 20:05 10.38590 -75.51495 943 ft 143 kts 360°
2026-04-23 20:05 10.39573 -75.51467 770 ft 142 kts 359°
2026-04-23 20:05 10.40572 -75.51437 615 ft 143 kts 359°
2026-04-23 20:06 10.41559 -75.51394 386 ft 140 kts 360°
2026-04-23 20:06 10.42529 -75.51354 209 ft 139 kts 358°
2026-04-23 20:06 10.43490 -75.51318 52 ft 132 kts
2026-04-23 20:06 10.44182 -75.51295 50 ft 57 kts
2026-04-23 20:07 10.44477 -75.51280 48 ft 30 kts
2026-04-23 20:07 10.44593 -75.51275 51 ft 11 kts 359°
2026-04-23 20:07 10.44646 -75.51310 50 ft 9 kts 295°
2026-04-23 20:07 10.44647 -75.51356 51 ft 5 kts 256°
2026-04-23 20:08 10.44638 -75.51382 51 ft 3 kts 250°
2026-04-23 20:08 10.44635 -75.51401 51 ft 2 kts 265°
2026-04-23 20:08 10.44630 -75.51433 49 ft 6 kts 250°
2026-04-23 20:08 10.44609 -75.51466 51 ft 5 kts 251°
2026-04-23 20:09 10.44607 -75.51495 51 ft 3 kts 271°
2026-04-23 20:09 10.44608 -75.51515 51 ft 2 kts 273°
2026-04-23 20:09 10.44609 -75.51527 51 ft 2 kts 272°
2026-04-23 20:09 10.44609 -75.51539 51 ft 1 kts 272°
2026-04-23 20:10 10.44610 -75.51543 51 ft 1 kts 272°
2026-04-23 20:10 10.44610 -75.51545 51 ft 0 kts 272°